FW8536 Weather Reports


Display with metric or nautical units.
time (UTC)temp
F
wind
direction
speed
MPH
gust
MPH
rain 1hr
in
rain 24hr
in
rain mn
in
humidity
%
barometer
mb
20260510191601 66 99 3.0 7.0 0.00 0.00 0.00 33 1005.9
20260510191059 66 157 3.0 11.0 0.00 0.00 0.00 31 1006.0
20260510190558 66 165 6.0 14.0 0.00 0.00 0.00 32 1006.0
20260510190110 66 134 7.0 14.0 0.00 0.00 0.00 31 1006.1
20260510185557 66 252 4.0 11.0 0.00 0.00 0.00 31 1006.1
20260510184557 66 178 5.0 15.0 0.00 0.00 0.00 30 1006.2
20260510184056 66 138 8.0 20.0 0.00 0.00 0.00 31 1006.3
20260510183556 66 135 11.0 20.0 0.00 0.00 0.00 31 1006.4
20260510183055 65 82 6.0 13.0 0.00 0.00 0.00 30 1006.5
20260510182555 65 180 7.0 13.0 0.00 0.00 0.00 32 1006.6
20260510182057 65 114 5.0 12.0 0.00 0.00 0.00 32 1006.6
20260510181555 65 219 5.0 12.0 0.00 0.00 0.00 31 1006.7
20260510181054 65 114 4.0 9.0 0.00 0.00 0.00 32 1006.7
20260510180554 65 80 4.0 9.0 0.00 0.00 0.00 31 1006.8
20260510180105 64 197 1.0 11.0 0.00 0.00 0.00 31 1006.7
20260510175554 65 165 5.0 13.0 0.00 0.00 0.00 31 1006.9
20260510174603 64 188 7.0 15.0 0.00 0.00 0.00 31 1006.9
20260510174054 63 173 8.0 15.0 0.00 0.00 0.00 32 1006.9
20260510173553 63 161 8.0 11.0 0.00 0.00 0.00 30 1006.9
20260510173053 63 98 8.0 11.0 0.00 0.00 0.00 31 1007.0
20260510172552 63 82 6.0 13.0 0.00 0.00 0.00 32 1007.0
20260510172053 63 86 11.0 13.0 0.00 0.00 0.00 30 1007.1
20260510171602 62 110 7.0 14.0 0.00 0.00 0.00 32 1007.2
20260510171052 62 132 10.0 14.0 0.00 0.00 0.00 31 1007.1
20260510170552 62 71 4.0 12.0 0.00 0.00 0.00 32 1007.2
20260510170052 62 96 8.0 12.0 0.00 0.00 0.00 30 1007.2
20260510165552 61 86 3.0 14.0 0.00 0.00 0.00 32 1007.1
20260510164606 61 115 11.0 16.0 0.00 0.00 0.00 31 1007.2
20260510164051 61 53 4.0 13.0 0.00 0.00 0.00 32 1007.2
20260510163552 61 76 9.0 16.0 0.00 0.00 0.00 31 1007.2
20260510163129 60 115 3.0 16.0 0.00 0.00 0.00 32 1007.4
20260510162551 60 120 4.0 16.0 0.00 0.00 0.00 30 1007.5
20260510162050 60 98 6.0 16.0 0.00 0.00 0.00 31 1007.5
20260510161550 60 104 4.0 12.0 0.00 0.00 0.00 32 1007.7
20260510161050 60 106 8.0 12.0 0.00 0.00 0.00 32 1007.8
20260510160550 59 118 5.0 11.0 0.00 0.00 0.00 33 1007.8
20260510160050 59 95 7.0 12.0 0.00 0.00 0.00 34 1007.8
20260510155549 59 84 7.0 12.0 0.00 0.00 0.00 33 1007.8
20260510154553 58 76 6.0 12.0 0.00 0.00 0.00 36 1007.9
20260510154050 58 109 4.0 10.0 0.00 0.00 0.00 37 1007.9
20260510153549 58 93 7.0 10.0 0.00 0.00 0.00 35 1008.1
20260510153101 57 92 6.0 11.0 0.00 0.00 0.00 37 1008.0
20260510152551 56 146 4.0 11.0 0.00 0.00 0.00 37 1008.1
20260510152049 56 154 4.0 13.0 0.00 0.00 0.00 38 1008.0
20260510151609 56 131 8.0 13.0 0.00 0.00 0.00 39 1008.0
20260510151049 55 157 6.0 10.0 0.00 0.00 0.00 39 1008.1
20260510150549 54 163 6.0 11.0 0.00 0.00 0.00 40 1008.2
20260510150057 54 160 6.0 11.0 0.00 0.00 0.00 40 1008.1
20260510145549 54 159 6.0 11.0 0.00 0.00 0.00 40 1008.1
20260510144558 53 149 6.0 10.0 0.00 0.00 0.00 43 1008.1
20260510144048 53 143 7.0 11.0 0.00 0.00 0.00 42 1008.2
20260510143548 52 115 7.0 11.0 0.00 0.00 0.00 43 1008.2
20260510143102 52 142 6.0 12.0 0.00 0.00 0.00 43 1008.2
20260510142548 52 125 8.0 11.0 0.00 0.00 0.00 44 1008.2
20260510142048 51 137 9.0 12.0 0.00 0.00 0.00 43 1008.2
20260510141555 51 171 6.0 12.0 0.00 0.00 0.00 43 1008.2
20260510141047 51 134 6.0 10.0 0.00 0.00 0.00 45 1008.2
20260510140550 50 146 8.0 11.0 0.00 0.00 0.00 44 1008.1
20260510140049 50 126 7.0 11.0 0.00 0.00 0.00 45 1008.1
20260510135548 49 360 8.0 11.0 0.00 0.00 0.00 46 1008.1
20260510134552 48 360 7.0 12.0 0.00 0.00 0.00 45 1008.3
20260510134050 49 360 8.0 10.0 0.00 0.00 0.00 45 1008.2
20260510133549 49 360 6.0 10.0 0.00 0.00 0.00 46 1008.1
20260510133049 50 126 8.0 11.0 0.00 0.00 0.00 44 1008.1
20260510132548 49 140 7.0 12.0 0.00 0.00 0.00 46 1008.0
20260510132051 49 134 9.0 12.0 0.00 0.00 0.00 45 1008.0
20260510131554 49 137 8.0 11.0 0.00 0.00 0.00 45 1008.1
20260510131047 49 124 7.0 10.0 0.00 0.00 0.00 48 1008.1
20260510130549 48 118 7.0 10.0 0.00 0.00 0.00 47 1008.1
20260510130047 47 123 6.0 10.0 0.00 0.00 0.00 48 1007.9
20260510125546 47 360 7.0 10.0 0.00 0.00 0.00 49 1008.0
20260510124557 46 360 7.0 9.0 0.00 0.00 0.00 51 1007.9
20260510124050 45 360 6.0 9.0 0.00 0.00 0.00 52 1008.0
20260510123546 45 360 6.0 8.0 0.00 0.00 0.00 52 1008.0
20260510123045 45 360 5.0 7.0 0.00 0.00 0.00 53 1008.0
20260510122544 44 360 5.0 7.0 0.00 0.00 0.00 52 1008.0
20260510122044 44 360 4.0 6.0 0.00 0.00 0.00 53 1008.0
20260510121543 45 360 3.0 5.0 0.00 0.00 0.00 51 1008.0
20260510121045 45 360 3.0 5.0 0.00 0.00 0.00 50 1007.9
20260510120543 45 360 1.0 3.0 0.00 0.00 0.00 49 1008.0
20260510120042 45 360 1.0 2.0 0.00 0.00 0.00 48 1008.0
20260510115541 45 360 0.0 2.0 0.00 0.00 0.00 48 1008.0
20260510114545 45 360 1.0 2.0 0.00 0.00 0.00 48 1007.9
20260510114041 45 360 1.0 4.0 0.00 0.00 0.00 48 1007.8
20260510113539 45 360 2.0 4.0 0.00 0.00 0.00 48 1007.6
20260510113040 45 360 2.0 5.0 0.00 0.00 0.00 47 1007.7
20260510112539 45 360 2.0 5.0 0.00 0.00 0.00 46 1007.7
20260510112039 45 360 4.0 6.0 0.00 0.00 0.00 46 1007.6
20260510111539 45 360 4.0 6.0 0.00 0.00 0.00 45 1007.7
20260510111038 46 360 3.0 5.0 0.00 0.00 0.00 45 1007.6
20260510110538 46 360 3.0 5.0 0.00 0.00 0.00 44 1007.5
20260510110037 46 360 3.0 5.0 0.00 0.00 0.00 44 1007.5
20260510105538 46 360 3.0 5.0 0.00 0.00 0.00 44 1007.4
20260510104542 46 360 3.0 5.0 0.00 0.00 0.00 45 1007.4
20260510104039 46 360 4.0 5.0 0.00 0.00 0.00 44 1007.5
20260510103538 46 360 2.0 5.0 0.00 0.00 0.00 44 1007.4
20260510103038 46 360 3.0 6.0 0.00 0.00 0.00 44 1007.5
20260510102539 46 360 3.0 5.0 0.00 0.00 0.00 43 1007.4
20260510102038 46 360 1.0 6.0 0.00 0.00 0.00 44 1007.3
20260510101541 45 360 4.0 6.0 0.00 0.00 0.00 45 1007.4
20260510101037 45 360 5.0 7.0 0.00 0.00 0.00 45 1007.4
20260510100537 45 360 5.0 7.0 0.00 0.00 0.00 45 1007.4
20260510100101 45 360 5.0 6.0 0.00 0.00 0.00 46 1007.4
20260510095537 45 360 4.0 7.0 0.00 0.00 0.00 47 1007.3
20260510094550 45 360 5.0 7.0 0.00 0.00 0.00 47 1007.4
20260510094035 45 360 6.0 7.0 0.00 0.00 0.00 47 1007.3
20260510093533 45 360 6.0 7.0 0.00 0.00 0.00 46 1007.3
20260510093032 45 360 6.0 7.0 0.00 0.00 0.00 46 1007.2
20260510092533 46 360 5.0 7.0 0.00 0.00 0.00 46 1007.2
20260510092029 46 360 6.0 7.0 0.00 0.00 0.00 45 1007.2
20260510091528 46 360 5.0 6.0 0.00 0.00 0.00 45 1007.2
20260510091028 46 360 5.0 6.0 0.00 0.00 0.00 44 1007.2
20260510090529 47 360 5.0 7.0 0.00 0.00 0.00 44 1007.1
20260510090037 47 360 5.0 7.0 0.00 0.00 0.00 44 1007.1
20260510085528 46 360 5.0 7.0 0.00 0.00 0.00 45 1007.2
20260510084527 46 360 5.0 7.0 0.00 0.00 0.00 45 1007.0
20260510084028 47 360 6.0 7.0 0.00 0.00 0.00 44 1007.1
20260510083525 47 360 6.0 7.0 0.00 0.00 0.00 44 1007.1
20260510083029 47 360 5.0 6.0 0.00 0.00 0.00 43 1007.0
20260510082524 47 360 5.0 6.0 0.00 0.00 0.00 43 1007.1
20260510082023 48 360 5.0 6.0 0.00 0.00 0.00 42 1007.1
20260510081524 48 360 5.0 6.0 0.00 0.00 0.00 42 1007.1
20260510081024 48 360 5.0 6.0 0.00 0.00 0.00 42 1007.1
20260510080523 48 360 5.0 6.0 0.00 0.00 0.00 41 1007.2
20260510080028 48 360 4.0 5.0 0.00 0.00 0.00 41 1007.1
20260510075522 48 360 4.0 5.0 0.00 0.00 0.00 41 1007.1
20260510074523 48 360 5.0 6.0 0.00 0.00 0.00 42 1007.2
20260510074023 48 360 5.0 6.0 0.00 0.00 0.00 42 1007.2
20260510073522 48 360 4.0 5.0 0.00 0.00 0.00 42 1007.2
20260510073022 49 360 4.0 5.0 0.00 0.00 0.00 41 1007.2
20260510072522 49 360 4.0 5.0 0.00 0.00 0.00 41 1007.0
20260510072022 49 360 4.0 6.0 0.00 0.00 0.00 40 1006.9
20260510071523 49 360 4.0 5.0 0.00 0.00 0.00 40 1006.9
20260510071021 49 360 4.0 5.0 0.00 0.00 0.00 40 1007.0
20260510070524 49 360 2.0 5.0 0.00 0.00 0.00 41 1007.0
20260510070029 49 360 3.0 6.0 0.00 0.00 0.00 41 1007.0
20260510065521 49 360 4.0 7.0 0.00 0.00 0.00 41 1007.0
20260510064521 49 360 6.0 7.0 0.00 0.00 0.00 40 1007.0
20260510064020 49 360 6.0 7.0 0.00 0.00 0.00 41 1007.0
20260510063519 49 360 5.0 7.0 0.00 0.00 0.00 40 1006.9
20260510063020 50 360 4.0 6.0 0.00 0.00 0.00 40 1006.8
20260510062519 50 360 4.0 6.0 0.00 0.00 0.00 40 1007.0
20260510062021 50 360 3.0 6.0 0.00 0.00 0.00 40 1007.1
20260510061518 50 360 0.0 6.0 0.00 0.00 0.00 40 1006.9
20260510061019 50 360 4.0 7.0 0.00 0.00 0.00 40 1006.9
20260510060518 50 360 4.0 8.0 0.00 0.00 0.00 41 1006.9
20260510060017 50 360 5.0 9.0 0.00 0.00 0.00 41 1006.9
20260510055519 50 360 7.0 10.0 0.00 0.00 0.00 40 1006.8
20260510054516 50 360 7.0 9.0 0.00 0.00 0.00 42 1006.5
20260510054015 50 360 6.0 8.0 0.00 0.00 0.00 43 1006.6
20260510053514 50 360 6.0 8.0 0.00 0.00 0.00 43 1006.5
20260510053013 49 360 6.0 8.0 0.00 0.00 0.00 43 1006.5
20260510052513 49 360 6.0 8.0 0.00 0.00 0.00 44 1006.3
20260510052013 49 360 6.0 8.0 0.00 0.00 0.00 44 1006.3
20260510051511 49 360 6.0 8.0 0.00 0.00 0.00 45 1006.2
20260510051011 49 360 6.0 8.0 0.00 0.00 0.00 45 1006.0
20260510050514 49 360 6.0 8.0 0.00 0.00 0.00 45 1005.9
20260510050010 48 360 6.0 8.0 0.00 0.00 0.00 45 1005.9
20260510045514 49 360 6.0 8.0 0.00 0.00 0.00 45 1005.9
20260510044516 48 360 6.0 8.0 0.00 0.00 0.00 45 1005.7
20260510044010 48 360 7.0 8.0 0.00 0.00 0.00 46 1005.7
20260510043508 48 360 6.0 8.0 0.00 0.00 0.00 46 1005.6
20260510043008 48 360 6.0 7.0 0.00 0.00 0.00 46 1005.6
20260510042508 48 360 6.0 8.0 0.00 0.00 0.00 47 1005.5
20260510042007 48 360 6.0 7.0 0.00 0.00 0.00 47 1005.5
20260510041506 48 360 6.0 8.0 0.00 0.00 0.00 47 1005.4
20260510041005 48 360 6.0 8.0 0.00 0.00 0.00 47 1005.4
20260510040504 49 360 6.0 8.0 0.00 0.00 0.00 46 1005.4
20260510040004 49 360 6.0 8.0 0.00 0.00 0.00 46 1005.4
20260510035502 49 360 6.0 8.0 0.00 0.00 0.00 45 1005.2
20260510034501 49 360 7.0 9.0 0.00 0.00 0.00 46 1005.1
20260510034101 49 360 7.0 8.0 0.00 0.00 0.00 47 1005.2
20260510033559 49 360 7.0 9.0 0.00 0.00 0.00 47 1005.1
20260510033137 49 360 7.0 9.0 0.00 0.00 0.00 47 1005.1
20260510032557 50 360 7.0 9.0 0.00 0.00 0.00 46 1004.9
20260510032057 50 360 6.0 8.0 0.00 0.00 0.00 46 1004.9
20260510031615 50 360 6.0 9.0 0.00 0.00 0.00 46 1004.7
20260510031054 50 360 6.0 8.0 0.00 0.00 0.00 45 1004.8
20260510030554 51 360 6.0 8.0 0.00 0.00 0.00 45 1004.6
20260510030058 51 360 6.0 8.0 0.00 0.00 0.00 44 1004.5
20260510025552 52 360 6.0 8.0 0.00 0.00 0.00 43 1004.5
20260510024551 54 360 5.0 7.0 0.00 0.00 0.00 41 1004.4
20260510024052 54 360 5.0 7.0 0.00 0.00 0.00 41 1004.3
20260510023549 54 11 5.0 6.0 0.00 0.00 0.00 40 1004.2
20260510023048 54 15 5.0 6.0 0.00 0.00 0.00 40 1004.1
20260510022548 55 13 5.0 6.0 0.00 0.00 0.00 40 1004.0
20260510022051 55 11 5.0 6.0 0.00 0.00 0.00 40 1004.0
20260510021546 55 17 5.0 6.0 0.00 0.00 0.00 40 1003.9
20260510021046 55 13 5.0 6.0 0.00 0.00 0.00 40 1003.7
20260510020545 55 15 5.0 7.0 0.00 0.00 0.00 40 1003.8
20260510020048 56 17 5.0 7.0 0.00 0.00 0.00 39 1003.7
20260510015542 56 12 6.0 8.0 0.00 0.00 0.00 39 1003.7
20260510014547 58 11 6.0 12.0 0.00 0.00 0.00 37 1003.6
20260510014041 59 13 8.0 14.0 0.00 0.00 0.00 36 1003.5
20260510013539 60 5 10.0 14.0 0.00 0.00 0.00 35 1003.4
20260510013038 61 360 10.0 19.0 0.00 0.00 0.00 34 1003.4
20260510012540 61 339 13.0 19.0 0.00 0.00 0.00 34 1003.3
20260510012038 61 329 6.0 12.0 0.00 0.00 0.00 35 1003.3
20260510011541 62 348 7.0 11.0 0.00 0.00 0.00 35 1003.2
20260510011038 62 307 8.0 14.0 0.00 0.00 0.00 35 1003.3
20260510010537 62 298 9.0 13.0 0.00 0.00 0.00 35 1003.0
20260510010036 62 300 10.0 14.0 0.00 0.00 0.00 35 1003.0
20260510005536 62 306 10.0 14.0 0.00 0.00 0.00 35 1003.0
20260510004538 61 297 10.0 14.0 0.00 0.00 0.00 36 1003.0
20260510004035 62 298 12.0 19.0 0.00 0.00 0.00 35 1003.1
20260510003535 62 307 12.0 19.0 0.00 0.00 0.00 35 1002.9
20260510003034 62 298 12.0 18.0 0.00 0.00 0.00 35 1003.0
20260510002536 62 321 12.0 15.0 0.00 0.00 0.00 34 1002.9
20260510002034 63 284 11.0 18.0 0.00 0.00 0.00 34 1002.9
20260510001534 63 279 11.0 21.0 0.00 0.00 0.00 35 1002.8
20260510001034 64 290 15.0 20.0 0.00 0.00 0.00 33 1002.7
20260510000536 64 301 15.0 20.0 0.00 0.00 0.00 33 1002.8
20260510000055 64 281 13.0 18.0 0.00 0.00 0.00 33 1002.8
20260509235538 64 292 12.0 19.0 0.00 0.00 0.00 33 1002.7
20260509234547 64 255 11.0 19.0 0.00 0.00 0.00 34 1002.7
20260509234032 64 261 11.0 19.0 0.00 0.00 0.00 34 1002.7
20260509233535 64 266 12.0 21.0 0.00 0.00 0.00 34 1002.6
20260509233034 64 321 10.0 19.0 0.00 0.00 0.00 35 1002.7
20260509232533 64 303 10.0 16.0 0.00 0.00 0.00 35 1002.7
20260509232033 64 313 12.0 18.0 0.00 0.00 0.00 36 1002.8
20260509231532 63 309 11.0 18.0 0.00 0.00 0.00 37 1002.8
20260509231032 62 318 13.0 16.0 0.00 0.00 0.00 37 1002.8
20260509230535 61 322 11.0 18.0 0.00 0.00 0.00 37 1002.7
20260509230036 62 319 11.0 20.0 0.00 0.00 0.00 36 1002.8
20260509225532 63 340 14.0 20.0 0.00 0.00 0.00 35 1002.7
20260509224531 65 317 13.0 25.0 0.00 0.00 0.00 35 1002.5
20260509224031 64 299 9.0 25.0 0.00 0.00 0.00 36 1002.7
20260509223531 65 248 14.0 23.0 0.00 0.00 0.00 34 1002.6
20260509223030 65 263 14.0 21.0 0.00 0.00 0.00 34 1002.5
20260509222529 65 268 14.0 21.0 0.00 0.00 0.00 34 1002.8
20260509222035 64 360 12.0 16.0 0.00 0.00 0.00 35 1002.7
20260509221528 63 260 11.0 23.0 0.00 0.00 0.00 35 1002.8
20260509221028 64 291 14.0 23.0 0.00 0.00 0.00 35 1002.8
20260509220527 62 321 12.0 16.0 0.00 0.00 0.00 37 1002.8
20260509220027 61 321 9.0 23.0 0.00 0.00 0.00 36 1002.9
20260509215528 61 341 13.0 23.0 0.00 0.00 0.00 36 1002.8
20260509215128 63 315 12.0 21.0 0.00 0.00 0.00 35 1002.9
20260509214531 63 325 11.0 21.0 0.00 0.00 0.00 37 1003.0
20260509214027 62 312 16.0 22.0 0.00 0.00 0.00 36 1003.0
20260509213529 63 302 15.0 22.0 0.00 0.00 0.00 36 1003.1
20260509213027 64 300 13.0 22.0 0.00 0.00 0.00 34 1003.0
20260509212525 63 360 13.0 21.0 0.00 0.00 0.00 37 1002.9
20260509212026 63 320 13.0 21.0 0.00 0.00 0.00 36 1003.0
20260509211525 63 298 13.0 18.0 0.00 0.00 0.00 36 1003.2
20260509211024 63 346 8.0 16.0 0.00 0.00 0.00 38 1003.0
20260509210522 62 300 12.0 20.0 0.00 0.00 0.00 38 1003.0
20260509210028 61 329 14.0 21.0 0.00 0.00 0.00 39 1003.1
20260509205521 61 322 11.0 23.0 0.00 0.00 0.00 40 1003.1
20260509204525 61 326 12.0 19.0 0.00 0.00 0.00 40 1003.1
20260509204025 61 288 9.0 20.0 0.00 0.00 0.00 39 1003.1
20260509203520 61 300 12.0 23.0 0.00 0.00 0.00 39 1003.2
20260509203019 61 304 11.0 19.0 0.00 0.00 0.00 40 1003.0
20260509202518 61 261 11.0 21.0 0.00 0.00 0.00 39 1003.2
20260509202018 61 292 14.0 24.0 0.00 0.00 0.00 42 1003.1
20260509201518 61 322 17.0 24.0 0.00 0.00 0.00 40 1003.2
20260509201017 61 264 9.0 21.0 0.00 0.00 0.00 41 1003.1
20260509200521 60 329 8.0 18.0 0.00 0.00 0.00 43 1003.2
20260509200017 61 328 12.0 18.0 0.00 0.00 0.00 41 1003.3
20260509195519 61 355 13.0 20.0 0.00 0.00 0.00 42 1003.3
20260509195120 60 321 10.0 19.0 0.00 0.00 0.00 43 1003.2
20260509194521 60 290 13.0 19.0 0.00 0.00 0.00 42 1003.3
20260509194017 60 289 8.0 21.0 0.00 0.00 0.00 43 1003.3
20260509193517 60 272 13.0 21.0 0.00 0.00 0.00 43 1003.4
20260509193025 60 293 13.0 18.0 0.00 0.00 0.00 43 1003.3
20260509192516 59 24 8.0 16.0 0.00 0.00 0.00 43 1003.3